Weather History for Culiacan, Mexico

Change the Weather History Date:

Thursday, February 28, 2013

  Actual Average Record
Temperature  
Mean Temperature 66 °F -  
Max Temperature 82 °F 84 °F 93 °F (1999)
Min Temperature 49 °F 55 °F 32 °F (2003)
Growing Degree Days 16 (Base 50)    
Moisture  
Dew Point 51 °F    
Average Humidity 65    
Maximum Humidity 91    
Minimum Humidity 37    
Precipitation  
Precipitation 0.00 in - - ()
Sea Level Pressure  
Sea Level Pressure 29.93 in    
Wind  
Wind Speed 4 mph ()    
Max Wind Speed 16 mph    
Max Gust Speed -    
Visibility 9.7 miles    
Events      
Averages and records for this station are not official NWS values.
T = Trace of Precipitation, MM = Missing Value Source: Averaged Metar Reports

Daily Weather History Graph

Daily Weather History Graph

Search for Another Location

Airport:

Trip Planner

Search our weather history database for the weather conditions in past years. The results will help you decide how hot, cold, wet, or windy it might be!

Date:

Astronomy

Feb. 28, 2013 Rise Set
Actual Time 6:33 AM MST 6:11 PM MST
Civil Twilight 6:10 AM MST 6:34 PM MST
Nautical Twilight 5:43 AM MST 7:01 PM MST
Astronomical Twilight 5:17 AM MST 7:27 PM MST
Moon 9:13 PM MST (2/28) 8:09 AM MST (2/28)
Length of Visible Light 12h 24m
Length of Day
11h 38m
Waning Gibbous, 90% of the Moon is Illuminated
Feb 28
Waning Gibbous
Mar 4
Last Quarter
Mar 11
New
Mar 19
First Quarter
Mar 27
Full

Hourly Weather History & Observations

Time (MST) Temp. Heat Index Dew Point Humidity Pressure Visibility Wind Dir Wind Speed Gust Speed Precip Events Conditions
12:40 AM 55.4 °F - 50.0 °F 82% 29.95 in 10.0 mi Calm Calm - N/A   Overcast
1:40 AM 53 °F - 49 °F 80% 29.99 in 6 mi SW 2.2 mph - -  
1:40 AM 55.4 °F - 50.0 °F 82% 29.94 in 10.0 mi WNW 5.8 mph - N/A   Overcast
2:40 AM 53.6 °F - 50.0 °F 88% 29.92 in 10.0 mi WNW 3.5 mph - N/A   Overcast
4:40 AM 49 °F - 47 °F 91% 29.99 in 6 mi SW 2.2 mph - -  
5:59 AM 50.0 °F - 46.4 °F 87% 29.93 in 10.0 mi Calm Calm - N/A   Clear
6:44 AM 50.0 °F - 46.4 °F 87% 29.95 in 10.0 mi Calm Calm - N/A   Clear
7:40 AM 51 °F - 45 °F 74% 30.01 in 10 mi SW 2.2 mph - -   Haze
7:42 AM 53.6 °F - 46.4 °F 77% 29.97 in 10.0 mi Calm Calm - N/A   Clear
8:46 AM 60.8 °F - 44.6 °F 55% 29.97 in 10.0 mi NNW 4.6 mph - N/A   Clear
9:40 AM 64.4 °F - 44.6 °F 49% 29.97 in 10.0 mi WNW 4.6 mph - N/A   Clear
10:40 AM 73.4 °F - 50.0 °F 44% 29.95 in 10.0 mi West 5.8 mph - N/A   Clear
11:42 AM 77.0 °F - 53.6 °F 44% 29.96 in 10.0 mi West 9.2 mph - N/A   Clear
12:47 PM 77.0 °F - 53.6 °F 44% 29.94 in 10.0 mi WNW 13.8 mph - N/A   Partly Cloudy
1:48 PM 82.4 °F 81.4 °F 53.6 °F 37% 29.90 in 10.0 mi West 11.5 mph - N/A   Partly Cloudy
2:43 PM 82.4 °F 81.4 °F 53.6 °F 37% 29.87 in 10.0 mi WNW 13.8 mph - N/A   Clear
3:40 PM 82.4 °F 81.4 °F 53.6 °F 37% 29.87 in 10.0 mi NW 13.8 mph - N/A   Clear
4:42 PM 80.6 °F 80.5 °F 55.4 °F 42% 29.86 in 10.0 mi WNW 16.1 mph - N/A   Clear
5:46 PM 75.2 °F - 55.4 °F 50% 29.87 in 10.0 mi WNW 13.8 mph - N/A   Scattered Clouds
6:51 PM 69.8 °F - 59.0 °F 68% 29.88 in 10.0 mi WNW 6.9 mph - N/A   Scattered Clouds
7:41 PM 68.0 °F - 57.2 °F 68% 29.89 in 10.0 mi WNW 8.1 mph - N/A   Clear
8:40 PM 64.4 °F - 55.4 °F 73% 29.91 in 10.0 mi Calm Calm - N/A   Clear
9:49 PM 60.8 °F - 55.4 °F 82% 29.92 in 10.0 mi Calm Calm - N/A   Clear
10:40 PM 60.8 °F - 55.4 °F 82% 29.91 in 10.0 mi Calm Calm - N/A   Clear